Belfast International Airport

Jump to: basic info | weather | frequencies | runways | comments

Related pages: nearby airports | nearby navaids | notams | map

Basic information (top)

Codes: BFS EGAA
Location: lon 54.657501, lat -6.215830, elev 268 ft / 82 m msl
Status: large_airport
Scheduled airline service: yes
Links: Wikipedia Mobile

Weather (top)

Current conditions (rec'd 2014/04/23 13:20Z):

EGAA 231320Z 17013KT 140V200 9999 FEW023 SCT028 15/09 Q1011

Airport forecast (rec'd 2014/04/23 12:15Z):

TAF TAF EGAA 231101Z 2312/2412 17011KT 9999 FEW016 SCT030 PROB30 
      TEMPO 2312/2320 7000 SHRA PROB30 
      TEMPO 2405/2408 BKN007

Frequencies (top)

Verify before use: may be inaccurate or out of date.

APP: 128.5 MHz (APP)
ATIS: 128.2 MHz (ATIS)
GND: 121.75 MHz (GND)
ILS 17: 110.9 MHz ()
ILS 25: 109.9 MHz ()
OPS: 26.48 MHz (OPS)
RDR: 120.9 MHz (DIRECTOR)
TWR: 118.3 MHz (TWR)

Runways (top)

07/25: 9,121 x 148 ft (2,780 x 45 m) — paved — lighted

17/35: 6,401 x 148 ft (1,951 x 45 m) — paved — lighted — threshold 17 displaced 525 ft (160 m) — threshold 35 displaced 502 ft (153 m)

Latest comments (top)

No comments yet for Belfast International Airport

More... (top)

See also NOTAMs and nearby airports and navaids, or visit the Belfast International Airport page at the main OurAirports website..